Location: Tauranga
(37.6860°S, 176.1670°E)
Time: 22:28:44
(UTC+13:00)

Cosmos 292 Rocket - Pass Details

Date: 24 January 2019
Orbit: 674 x 694 km, 74.0° (Epoch: 15 October)

Event Time Altitude Azimuth Distance (km) Brightness Sun altitude
Rises 21:39:18 0° 204° (SSW) 3,065 8.2 -11.9°
Reaches altitude 10° 21:41:39 10° 208° (SSW) 2,144 7.4 -12.2°
Maximum altitude 21:46:20 54° 284° (WNW) 837 4.4 -13.0°
Drops below altitude 10° 21:51:00 10° 0° (N) 2,125 5.9 -13.7°
Enters shadow 21:51:32 - 2° (N) 2,328 6.1 -13.8°
